Year,Month,Day,Hour,Minute,Value (Times are PST for temperature in C)
2006,03,21,00,08,6.60
2006,03,21,00,09,6.70
2006,03,21,00,10,6.80
2006,03,21,00,11,6.80
2006,03,21,00,12,6.90
2006,03,21,00,13,7.00
2006,03,21,00,14,7.00
2006,03,21,00,15,7.10
2006,03,21,00,16,7.10
2006,03,21,00,17,7.10
2006,03,21,00,18,7.20
2006,03,21,00,19,7.20
2006,03,21,00,20,7.20
2006,03,21,00,21,7.20
2006,03,21,00,22,7.20
2006,03,21,00,23,7.20
2006,03,21,00,24,7.30
2006,03,21,00,25,7.30
2006,03,21,00,26,7.30
2006,03,21,00,27,7.30
2006,03,21,00,28,7.30
2006,03,21,00,29,7.30
2006,03,21,00,30,7.30
2006,03,21,00,31,7.30
2006,03,21,00,32,7.30
2006,03,21,00,33,7.30
2006,03,21,00,34,7.30
2006,03,21,00,35,7.30
2006,03,21,00,36,7.30
2006,03,21,00,37,7.30
2006,03,21,00,38,7.30
2006,03,21,00,39,7.30
2006,03,21,00,40,7.30
2006,03,21,00,41,7.30
2006,03,21,00,42,7.30
2006,03,21,00,43,7.30
2006,03,21,00,44,7.30
2006,03,21,00,45,7.30
2006,03,21,00,46,7.30
2006,03,21,00,47,7.30
2006,03,21,00,48,7.30
2006,03,21,00,49,7.30
2006,03,21,00,50,7.30
2006,03,21,00,51,7.30
2006,03,21,00,52,7.30
2006,03,21,00,53,7.30
2006,03,21,00,54,7.30
2006,03,21,00,55,7.30
2006,03,21,00,56,7.30
2006,03,21,00,57,7.30
2006,03,21,00,58,7.20
2006,03,21,00,59,7.20
2006,03,21,01,00,7.20
2006,03,21,01,01,7.20
2006,03,21,01,02,7.20
2006,03,21,01,03,7.20
2006,03,21,01,04,7.20
2006,03,21,01,05,7.20
2006,03,21,01,06,7.20
2006,03,21,01,07,7.20
2006,03,21,01,08,7.20
2006,03,21,01,09,7.20
2006,03,21,01,10,7.20
2006,03,21,01,11,7.20
2006,03,21,01,12,7.10
2006,03,21,01,13,7.00
2006,03,21,01,14,7.00
2006,03,21,01,15,7.00
2006,03,21,01,16,6.90
2006,03,21,01,17,6.90
2006,03,21,01,18,6.90
2006,03,21,01,19,6.90
2006,03,21,01,20,6.80
2006,03,21,01,21,6.80
2006,03,21,01,22,6.80
2006,03,21,01,23,6.80
2006,03,21,01,24,6.80
2006,03,21,01,25,6.80
2006,03,21,01,26,6.80
2006,03,21,01,27,6.80
2006,03,21,01,28,6.80
2006,03,21,01,29,6.80
2006,03,21,01,30,6.80
2006,03,21,01,31,6.80
2006,03,21,01,32,6.80
2006,03,21,01,33,6.80
2006,03,21,01,34,6.80
2006,03,21,01,35,6.70
2006,03,21,01,36,6.70
2006,03,21,01,37,6.70
2006,03,21,01,38,6.70
2006,03,21,01,39,6.70
2006,03,21,01,40,6.70
2006,03,21,01,41,6.70
2006,03,21,01,42,6.70
2006,03,21,01,43,6.60
2006,03,21,01,44,6.60
2006,03,21,01,45,6.60
2006,03,21,01,46,6.60
2006,03,21,01,47,6.60
2006,03,21,01,48,6.60
2006,03,21,01,49,6.70
2006,03,21,01,50,6.70
2006,03,21,01,51,6.60
2006,03,21,01,52,6.60
2006,03,21,01,53,6.60
2006,03,21,01,54,6.60
2006,03,21,01,55,6.60
2006,03,21,01,56,6.60
2006,03,21,01,57,6.60
2006,03,21,01,58,6.60
2006,03,21,01,59,6.60
2006,03,21,02,00,6.60
2006,03,21,02,01,6.60
2006,03,21,02,02,6.60
2006,03,21,02,03,6.60
2006,03,21,02,04,6.60
2006,03,21,02,05,6.60
2006,03,21,02,06,6.60
2006,03,21,02,07,6.60
2006,03,21,02,08,6.60
2006,03,21,04,08,6.70
2006,03,21,04,09,6.70
2006,03,21,04,10,6.60
2006,03,21,04,11,6.60
2006,03,21,04,12,6.60
2006,03,21,04,13,6.60
2006,03,21,04,14,6.60
2006,03,21,04,15,6.60
2006,03,21,04,16,6.60
2006,03,21,04,17,6.60
2006,03,21,04,18,6.50
2006,03,21,04,19,6.40
2006,03,21,04,20,6.40
2006,03,21,04,21,6.40
2006,03,21,04,22,6.40
2006,03,21,04,23,6.40
2006,03,21,04,24,6.40
2006,03,21,04,25,6.30
2006,03,21,04,26,6.30
2006,03,21,04,27,6.30
2006,03,21,04,28,6.30
2006,03,21,04,29,6.30
2006,03,21,04,30,6.20
2006,03,21,04,31,6.20
2006,03,21,04,32,6.20
2006,03,21,04,33,6.20
2006,03,21,04,34,6.20
2006,03,21,04,35,6.20
2006,03,21,04,36,6.20
2006,03,21,04,37,6.20
2006,03,21,04,38,6.20
2006,03,21,04,39,6.20
2006,03,21,04,40,6.20
2006,03,21,04,41,6.20
2006,03,21,04,42,6.20
2006,03,21,04,43,6.20
2006,03,21,04,44,6.20
2006,03,21,04,45,6.20
2006,03,21,04,46,6.20
2006,03,21,04,47,6.20
2006,03,21,04,48,6.20
2006,03,21,04,49,6.20
2006,03,21,04,50,6.20
2006,03,21,04,51,6.20
2006,03,21,04,52,6.20
2006,03,21,04,53,6.20
2006,03,21,04,54,6.20
2006,03,21,04,55,6.20
2006,03,21,04,56,6.20
2006,03,21,04,57,6.20
2006,03,21,04,58,6.10
2006,03,21,04,59,6.10
2006,03,21,05,00,6.10
2006,03,21,05,01,6.10
2006,03,21,05,02,6.10
2006,03,21,05,03,6.10
2006,03,21,05,04,6.10
2006,03,21,05,05,6.10
2006,03,21,05,06,6.10
2006,03,21,05,07,6.10
2006,03,21,05,08,6.10
2006,03,21,05,09,6.10
2006,03,21,05,10,6.10
2006,03,21,05,11,6.10
2006,03,21,05,12,6.10
2006,03,21,05,13,6.10
2006,03,21,05,14,6.10
2006,03,21,07,14,6.10
2006,03,21,07,15,6.10
2006,03,21,07,16,6.10
2006,03,21,07,17,6.10
2006,03,21,07,18,6.10
2006,03,21,07,19,6.20
2006,03,21,07,20,6.20
2006,03,21,07,21,6.20
2006,03,21,07,22,6.30
2006,03,21,07,23,6.30
2006,03,21,07,24,6.40
2006,03,21,07,25,6.40
2006,03,21,07,26,6.40
2006,03,21,07,27,6.40
2006,03,21,07,28,6.50
2006,03,21,07,29,6.60
2006,03,21,07,30,6.60
2006,03,21,07,31,6.60
2006,03,21,07,32,6.60
2006,03,21,07,33,6.60
2006,03,21,07,34,6.60
2006,03,21,07,35,6.60
2006,03,21,07,36,6.60
2006,03,21,07,37,6.60
2006,03,21,07,38,6.60
2006,03,21,07,39,6.60
2006,03,21,07,40,6.60
2006,03,21,07,41,6.60
2006,03,21,07,42,6.60
2006,03,21,07,43,6.60
2006,03,21,07,44,6.60
2006,03,21,07,45,6.60
2006,03,21,07,46,6.60
2006,03,21,07,47,6.60
2006,03,21,07,48,6.60
2006,03,21,07,49,6.60
2006,03,21,07,50,6.60
2006,03,21,07,51,6.60
2006,03,21,07,52,6.70
2006,03,21,07,53,6.70
2006,03,21,07,54,6.70
2006,03,21,07,55,6.80
2006,03,21,07,56,6.80
2006,03,21,07,57,6.90
2006,03,21,07,58,7.00
2006,03,21,07,59,7.10
2006,03,21,08,00,7.10
2006,03,21,08,01,7.10
2006,03,21,08,02,7.10
2006,03,21,08,03,7.10
2006,03,21,08,04,7.20
2006,03,21,08,05,7.40
2006,03,21,08,06,7.40
2006,03,21,08,07,7.50
2006,03,21,08,08,7.50
2006,03,21,08,09,7.50
2006,03,21,08,10,7.50
2006,03,21,08,11,7.60
2006,03,21,08,12,7.60
2006,03,21,08,13,7.60
2006,03,21,08,14,7.60
2006,03,21,08,15,7.60
2006,03,21,08,16,7.70
2006,03,21,08,17,7.70
2006,03,21,08,18,7.70
2006,03,21,08,19,7.70
2006,03,21,08,20,7.80
2006,03,21,08,21,7.80
2006,03,21,08,22,7.80
2006,03,21,08,23,7.80
2006,03,21,08,24,7.80
2006,03,21,08,25,7.80
2006,03,21,08,26,7.80
2006,03,21,08,27,7.80
2006,03,21,08,28,7.80
2006,03,21,08,29,7.80
2006,03,21,08,30,7.80
2006,03,21,08,31,7.80
2006,03,21,08,32,7.80
2006,03,21,08,33,7.90
2006,03,21,08,34,8.00
2006,03,21,08,35,8.00
2006,03,21,08,36,8.00
2006,03,21,08,37,8.00
2006,03,21,08,38,8.00
2006,03,21,08,39,8.00
2006,03,21,08,40,8.00
2006,03,21,08,41,8.10
2006,03,21,08,42,8.10
2006,03,21,08,43,8.10
2006,03,21,08,44,8.10
2006,03,21,08,45,8.20
2006,03,21,08,46,8.20
2006,03,21,08,47,8.20
2006,03,21,08,48,8.20
2006,03,21,08,49,8.20
2006,03,21,08,50,8.20
2006,03,21,08,51,8.20
2006,03,21,08,52,8.20
2006,03,21,08,53,8.20
2006,03,21,08,54,8.20
2006,03,21,08,55,8.20
2006,03,21,08,56,8.20
2006,03,21,08,57,8.20
2006,03,21,08,58,8.20
2006,03,21,08,59,8.20
2006,03,21,09,00,8.20
2006,03,21,09,01,8.30
2006,03,21,09,02,8.30
2006,03,21,09,03,8.30
2006,03,21,09,04,8.30
2006,03,21,09,05,8.20
2006,03,21,09,06,8.20
2006,03,21,09,07,8.20
2006,03,21,09,08,8.20
2006,03,21,09,09,8.20
2006,03,21,09,10,8.20
2006,03,21,09,11,8.20
2006,03,21,09,12,8.20
2006,03,21,09,13,8.20
2006,03,21,09,14,8.20
2006,03,21,09,15,8.20
2006,03,21,09,16,8.20
2006,03,21,09,26,8.50
2006,03,21,09,27,8.40
2006,03,21,09,28,8.40
2006,03,21,09,29,8.40
2006,03,21,09,30,8.30
2006,03,21,09,31,8.30
2006,03,21,09,32,8.40
2006,03,21,09,33,8.40
2006,03,21,09,34,8.40
2006,03,21,09,35,8.40
2006,03,21,09,36,8.40
2006,03,21,09,37,8.40
2006,03,21,09,38,8.30
2006,03,21,09,39,8.30
2006,03,21,09,40,8.30
2006,03,21,09,41,8.30
2006,03,21,09,42,8.30
2006,03,21,09,43,8.30
2006,03,21,09,44,8.30
2006,03,21,09,45,8.30
2006,03,21,09,46,8.30
2006,03,21,09,47,8.30
2006,03,21,09,48,8.20
2006,03,21,09,49,8.20
2006,03,21,09,50,8.20
2006,03,21,09,51,8.20
2006,03,21,09,52,8.20
2006,03,21,09,53,8.20
2006,03,21,09,54,8.20
2006,03,21,09,55,8.20
2006,03,21,09,56,8.30
2006,03,21,09,57,8.30
2006,03,21,09,58,8.30
2006,03,21,09,59,8.30
2006,03,21,10,00,8.30
2006,03,21,10,03,8.30
2006,03,21,10,04,8.30
2006,03,21,10,05,8.30
2006,03,21,10,06,8.30
2006,03,21,10,07,8.30
2006,03,21,10,08,8.30
2006,03,21,10,09,8.30
2006,03,21,10,10,8.30
2006,03,21,10,11,8.40
2006,03,21,10,12,8.40
2006,03,21,10,13,8.40
2006,03,21,10,14,8.40
2006,03,21,10,15,8.40
2006,03,21,10,16,8.40
2006,03,21,10,17,8.40
2006,03,21,10,18,8.40
2006,03,21,10,19,8.40
2006,03,21,10,20,8.40
2006,03,21,10,21,8.40
2006,03,21,10,22,8.40
2006,03,21,10,54,9.10
2006,03,21,10,55,9.10
2006,03,21,10,56,9.10
2006,03,21,10,57,9.10
2006,03,21,10,58,9.20
2006,03,21,10,59,9.20
2006,03,21,11,00,9.20
2006,03,21,11,01,9.20
2006,03,21,11,02,9.20
2006,03,21,11,03,9.20
2006,03,21,11,04,9.20
2006,03,21,11,05,9.20
2006,03,21,11,06,9.20
2006,03,21,11,07,9.20
2006,03,21,11,08,9.20
2006,03,21,11,09,9.20
2006,03,21,11,10,9.20
2006,03,21,11,11,9.20
2006,03,21,11,12,9.20
2006,03,21,11,13,9.20
2006,03,21,11,14,9.20
2006,03,21,11,15,9.20
2006,03,21,11,16,9.20
2006,03,21,11,17,9.20
2006,03,21,11,18,9.20
2006,03,21,11,19,9.20
2006,03,21,11,20,9.20
2006,03,21,11,21,9.10
2006,03,21,11,22,9.10
2006,03,21,11,23,9.10
2006,03,21,11,24,9.10
2006,03,21,11,25,9.10
2006,03,21,11,26,9.00
2006,03,21,11,27,9.00
2006,03,21,11,28,9.00
2006,03,21,11,29,9.10
2006,03,21,11,30,9.10
2006,03,21,11,31,9.20
2006,03,21,11,32,9.20
2006,03,21,11,33,9.20
2006,03,21,11,34,9.20
2006,03,21,11,35,9.20
2006,03,21,11,36,9.20
2006,03,21,11,37,9.30
2006,03,21,11,38,9.30
2006,03,21,11,39,9.30
2006,03,21,11,40,9.30
2006,03,21,11,41,9.30
2006,03,21,11,42,9.30
2006,03,21,11,43,9.20
2006,03,21,11,44,9.20
2006,03,21,11,45,9.20
2006,03,21,11,46,9.20
2006,03,21,11,47,9.20
2006,03,21,11,48,9.20
2006,03,21,11,49,9.20
2006,03,21,11,50,9.20
2006,03,21,11,51,9.20
2006,03,21,11,52,9.20
2006,03,21,11,53,9.20
2006,03,21,11,54,9.20
2006,03,21,11,55,9.20
2006,03,21,11,56,9.20
2006,03,21,11,57,9.30
2006,03,21,11,58,9.40
2006,03,21,11,59,9.40
2006,03,21,12,00,9.40
2006,03,21,12,01,9.50
2006,03,21,12,02,9.50
2006,03,21,12,03,9.50
2006,03,21,12,04,9.50
2006,03,21,12,05,9.60
2006,03,21,12,06,9.60
2006,03,21,12,07,9.70
2006,03,21,12,08,9.70
2006,03,21,12,09,9.60
2006,03,21,12,10,9.60
2006,03,21,12,11,9.50
2006,03,21,12,12,9.50
2006,03,21,12,13,9.50
2006,03,21,12,14,9.50
2006,03,21,12,15,9.40
2006,03,21,12,16,9.40
2006,03,21,12,17,9.40
2006,03,21,12,18,9.50
2006,03,21,12,19,9.60
2006,03,21,12,20,9.60
2006,03,21,12,21,9.60
2006,03,21,12,22,9.50
2006,03,21,12,23,9.50
2006,03,21,12,24,9.60
2006,03,21,12,25,9.60
2006,03,21,12,26,9.60
2006,03,21,12,27,9.60
2006,03,21,12,28,9.60
2006,03,21,12,29,9.80
2006,03,21,12,30,9.90
2006,03,21,12,31,10.00
2006,03,21,12,32,10.10
2006,03,21,12,33,10.20
2006,03,21,12,34,10.20
2006,03,21,12,35,10.30
2006,03,21,12,36,10.40
2006,03,21,12,37,10.50
2006,03,21,12,38,10.60
2006,03,21,12,39,10.60
2006,03,21,12,40,10.60
2006,03,21,12,41,10.60
2006,03,21,12,42,10.60
2006,03,21,12,43,10.50
2006,03,21,12,44,10.40
2006,03,21,12,45,10.40
2006,03,21,12,46,10.40
2006,03,21,12,47,10.30
2006,03,21,12,48,10.20
2006,03,21,12,49,10.20
2006,03,21,12,50,10.30
2006,03,21,12,51,10.30
2006,03,21,12,52,10.30
2006,03,21,12,53,10.30
2006,03,21,12,54,10.30
2006,03,21,12,55,10.30
2006,03,21,12,56,10.30
2006,03,21,12,57,10.30
2006,03,21,12,58,10.20
2006,03,21,12,59,10.30
2006,03,21,13,00,10.30
2006,03,21,13,01,10.40
2006,03,21,13,02,10.40
2006,03,21,13,03,10.50
2006,03,21,13,04,10.60
2006,03,21,13,05,10.60
2006,03,21,13,06,10.50
2006,03,21,13,07,10.40
2006,03,21,13,08,10.40
2006,03,21,13,09,10.40
2006,03,21,13,10,10.40
2006,03,21,13,11,10.40
2006,03,21,13,12,10.40
2006,03,21,13,13,10.40
2006,03,21,13,14,10.50
2006,03,21,13,15,10.60
2006,03,21,13,16,10.80
2006,03,21,13,17,10.80
2006,03,21,13,18,10.90
2006,03,21,13,19,10.80
2006,03,21,13,20,10.70
2006,03,21,13,21,10.60
2006,03,21,13,22,10.60
2006,03,21,13,23,10.50
2006,03,21,13,24,10.40
2006,03,21,13,25,10.40
2006,03,21,13,26,10.30
2006,03,21,13,27,10.30
2006,03,21,13,28,10.30
2006,03,21,13,29,10.30
2006,03,21,13,30,10.30
2006,03,21,13,31,10.40
2006,03,21,13,32,10.50
2006,03,21,13,33,10.60
2006,03,21,13,34,10.60
2006,03,21,13,35,10.60
2006,03,21,13,36,10.50
2006,03,21,13,37,10.40
2006,03,21,13,38,10.40
2006,03,21,13,39,10.40
2006,03,21,13,40,10.40
2006,03,21,13,41,10.40
2006,03,21,13,42,10.40
2006,03,21,13,43,10.40
2006,03,21,13,44,10.40
2006,03,21,13,45,10.40
2006,03,21,13,46,10.40
2006,03,21,13,47,10.40
2006,03,21,13,48,10.40
2006,03,21,13,49,10.30
2006,03,21,13,50,10.30
2006,03,21,13,51,10.40
2006,03,21,13,52,10.40
2006,03,21,13,53,10.40
2006,03,21,13,54,10.30
2006,03,21,13,55,10.30
2006,03,21,13,56,10.20
2006,03,21,13,57,10.10
2006,03,21,13,58,10.10
2006,03,21,13,59,10.10
2006,03,21,14,00,10.10
2006,03,21,14,01,10.00
2006,03,21,14,02,9.90
2006,03,21,14,03,9.90
2006,03,21,14,04,10.00
2006,03,21,14,05,10.10
2006,03,21,14,06,10.10
2006,03,21,14,07,10.10
2006,03,21,14,08,10.00
2006,03,21,14,09,9.90
2006,03,21,14,10,9.70
2006,03,21,14,11,9.70
2006,03,21,14,12,9.70
2006,03,21,14,13,9.70
2006,03,21,14,14,9.70
2006,03,21,14,15,9.80
2006,03,21,14,16,9.80
2006,03,21,14,17,9.80
2006,03,21,14,18,9.80
2006,03,21,14,19,9.70
2006,03,21,14,20,9.70
2006,03,21,14,21,9.70
2006,03,21,14,22,9.70
2006,03,21,14,23,9.70
2006,03,21,14,24,9.80
2006,03,21,14,25,9.80
2006,03,21,14,26,9.90
2006,03,21,14,27,9.90
2006,03,21,14,28,9.90
2006,03,21,14,29,10.00
2006,03,21,14,30,10.10
2006,03,21,14,31,10.10
2006,03,21,14,32,10.10
2006,03,21,14,33,10.10
2006,03,21,14,34,10.10
2006,03,21,14,35,10.10
2006,03,21,14,36,10.10
2006,03,21,14,37,10.10
2006,03,21,14,38,10.10
2006,03,21,14,39,10.10
2006,03,21,14,40,10.00
2006,03,21,14,41,9.90
2006,03,21,14,42,9.90
2006,03,21,14,43,9.90
2006,03,21,14,44,9.90
2006,03,21,14,45,9.90
2006,03,21,14,46,9.80
2006,03,21,14,47,9.80
2006,03,21,14,48,9.70
2006,03,21,14,49,9.70
2006,03,21,14,50,9.80
2006,03,21,14,51,9.80
2006,03,21,14,52,9.80
2006,03,21,14,53,9.90
2006,03,21,14,54,9.90
2006,03,21,14,55,9.90
2006,03,21,14,56,10.00
2006,03,21,14,57,10.10
2006,03,21,14,58,10.20
2006,03,21,14,59,10.20
2006,03,21,15,00,10.30
2006,03,21,15,01,10.30
2006,03,21,15,02,10.30
2006,03,21,15,03,10.20
2006,03,21,15,04,10.20
2006,03,21,15,05,10.20
2006,03,21,15,06,10.20
2006,03,21,15,07,10.30
2006,03,21,15,08,10.30
2006,03,21,15,09,10.30
2006,03,21,15,10,10.30
2006,03,21,15,11,10.20
2006,03,21,15,12,10.20
2006,03,21,15,13,10.20
2006,03,21,15,14,10.30
2006,03,21,15,15,10.40
2006,03,21,15,16,10.50
2006,03,21,15,17,10.60
2006,03,21,15,18,10.70
2006,03,21,15,19,10.80
2006,03,21,15,20,10.80
2006,03,21,15,21,10.90
2006,03,21,15,22,10.90
2006,03,21,15,23,10.90
2006,03,21,15,24,10.80
2006,03,21,15,25,10.70
2006,03,21,15,26,10.60
2006,03,21,15,27,10.60
2006,03,21,15,28,10.60
2006,03,21,15,29,10.60
2006,03,21,15,30,10.60
2006,03,21,15,31,10.70
2006,03,21,15,32,10.70
2006,03,21,15,33,10.70
2006,03,21,15,34,10.70
2006,03,21,15,35,10.70
2006,03,21,15,36,10.60
2006,03,21,15,37,10.60
2006,03,21,15,38,10.50
2006,03,21,15,39,10.40
2006,03,21,15,40,10.40
2006,03,21,15,41,10.30
2006,03,21,15,42,10.30
2006,03,21,15,43,10.30
2006,03,21,15,44,10.30
2006,03,21,15,45,10.30
2006,03,21,15,46,10.30
2006,03,21,15,47,10.30
2006,03,21,15,48,10.20
2006,03,21,15,49,10.10
2006,03,21,15,50,10.10
2006,03,21,15,51,10.10
2006,03,21,15,52,10.00
2006,03,21,15,53,9.90
2006,03,21,15,54,9.80
2006,03,21,15,55,9.70
2006,03,21,15,56,9.70
2006,03,21,15,57,9.70
2006,03,21,15,58,9.60
2006,03,21,15,59,9.60
2006,03,21,16,00,9.60
2006,03,21,16,01,9.60
2006,03,21,16,02,9.60
2006,03,21,16,03,9.60
2006,03,21,16,04,9.60
2006,03,21,16,05,9.60
2006,03,21,16,06,9.50
2006,03,21,16,07,9.50
2006,03,21,16,08,9.50
2006,03,21,16,09,9.50
2006,03,21,16,10,9.50
2006,03,21,16,11,9.50
2006,03,21,16,12,9.60
2006,03,21,16,13,9.60
2006,03,21,16,14,9.60
2006,03,21,16,15,9.70
2006,03,21,16,16,9.70
2006,03,21,16,17,9.70
2006,03,21,16,18,9.70
2006,03,21,16,19,9.70
2006,03,21,16,20,9.70
2006,03,21,16,21,9.60
2006,03,21,16,22,9.60
2006,03,21,16,23,9.60
2006,03,21,16,24,9.60
2006,03,21,16,25,9.60
2006,03,21,16,26,9.50
2006,03,21,16,27,9.50
2006,03,21,16,28,9.50
2006,03,21,16,29,9.50
2006,03,21,16,30,9.50
2006,03,21,16,31,9.40
2006,03,21,16,32,9.40
2006,03,21,16,33,9.40
2006,03,21,16,34,9.40
2006,03,21,16,35,9.40
2006,03,21,16,36,9.40
2006,03,21,16,37,9.40
2006,03,21,16,38,9.50
2006,03,21,16,39,9.50
2006,03,21,16,40,9.60
2006,03,21,16,41,9.60
2006,03,21,16,42,9.70
2006,03,21,16,43,9.60
2006,03,21,16,44,9.60
2006,03,21,16,45,9.60
2006,03,21,16,46,9.60
2006,03,21,16,47,9.60
2006,03,21,16,48,9.50
2006,03,21,16,49,9.50
2006,03,21,16,50,9.50
2006,03,21,16,51,9.50
2006,03,21,16,52,9.50
2006,03,21,16,53,9.40
2006,03,21,16,54,9.40
2006,03,21,16,55,9.30
2006,03,21,16,56,9.30
2006,03,21,16,57,9.30
2006,03,21,16,58,9.20
2006,03,21,16,59,9.20
2006,03,21,17,00,9.20
2006,03,21,17,01,9.20
2006,03,21,17,02,9.20
2006,03,21,17,03,9.20
2006,03,21,17,04,9.20
2006,03,21,17,05,9.30
2006,03,21,17,06,9.30
2006,03,21,17,07,9.30
2006,03,21,17,08,9.30
2006,03,21,17,09,9.30
2006,03,21,17,10,9.30
2006,03,21,17,11,9.30
2006,03,21,17,12,9.30
2006,03,21,17,13,9.30
2006,03,21,17,14,9.30
2006,03,21,17,15,9.20
2006,03,21,17,16,9.20
2006,03,21,17,17,9.20
2006,03,21,17,18,9.20
2006,03,21,17,19,9.20
2006,03,21,17,20,9.20
2006,03,21,17,21,9.20
2006,03,21,17,22,9.30
2006,03,21,17,23,9.30
2006,03,21,17,24,9.30
2006,03,21,17,25,9.40
2006,03,21,17,26,9.40
2006,03,21,17,27,9.40
2006,03,21,17,28,9.40
2006,03,21,17,29,9.50
2006,03,21,17,30,9.50
2006,03,21,17,31,9.50
2006,03,21,17,32,9.50
2006,03,21,17,33,9.40
2006,03,21,17,34,9.40
2006,03,21,17,35,9.30
2006,03,21,17,36,9.30
2006,03,21,17,37,9.20
2006,03,21,17,38,9.20
2006,03,21,17,39,9.20
2006,03,21,17,40,9.20
2006,03,21,17,41,9.20
2006,03,21,17,42,9.20
2006,03,21,17,43,9.20
2006,03,21,17,44,9.20
2006,03,21,17,45,9.20
2006,03,21,17,46,9.20
2006,03,21,17,47,9.20
2006,03,21,17,48,9.20
2006,03,21,17,49,9.20
2006,03,21,17,50,9.20
2006,03,21,17,51,9.20
2006,03,21,17,52,9.20
2006,03,21,17,53,9.20
2006,03,21,17,54,9.20
2006,03,21,17,55,9.20
2006,03,21,17,56,9.20
2006,03,21,17,57,9.20
2006,03,21,17,58,9.20
2006,03,21,17,59,9.20
2006,03,21,18,00,9.20
2006,03,21,18,01,9.20
2006,03,21,18,02,9.20
2006,03,21,18,03,9.20
2006,03,21,18,04,9.20
2006,03,21,18,05,9.20
2006,03,21,18,06,9.20
2006,03,21,18,07,9.20
2006,03,21,18,08,9.30
2006,03,21,18,09,9.30
2006,03,21,18,10,9.30
2006,03,21,18,11,9.30
2006,03,21,18,12,9.40
2006,03,21,18,13,9.40
2006,03,21,18,14,9.40
2006,03,21,18,15,9.40
2006,03,21,18,16,9.40
2006,03,21,18,17,9.40
2006,03,21,18,18,9.40
2006,03,21,18,19,9.40
2006,03,21,18,20,9.30
2006,03,21,18,21,9.30
2006,03,21,18,22,9.30
2006,03,21,18,23,9.30
2006,03,21,18,24,9.30
2006,03,21,18,25,9.30
2006,03,21,18,26,9.30
2006,03,21,18,27,9.30
2006,03,21,18,28,9.30
2006,03,21,18,29,9.30
2006,03,21,18,30,9.30
2006,03,21,18,31,9.30
2006,03,21,18,32,9.30
2006,03,21,18,33,9.30
2006,03,21,18,34,9.30
2006,03,21,18,35,9.20
2006,03,21,18,36,9.20
2006,03,21,18,37,9.20
2006,03,21,18,38,9.20
2006,03,21,18,39,9.20
2006,03,21,18,40,9.20
2006,03,21,18,41,9.20
2006,03,21,18,42,9.20
2006,03,21,18,43,9.20
2006,03,21,18,44,9.20
2006,03,21,18,45,9.20
2006,03,21,18,46,9.10
2006,03,21,18,47,9.10
2006,03,21,18,48,9.00
2006,03,21,18,49,9.00
2006,03,21,18,50,9.00
2006,03,21,18,51,8.90
2006,03,21,18,52,8.90
2006,03,21,18,53,8.80
2006,03,21,18,54,8.70
2006,03,21,18,55,8.70
2006,03,21,18,56,8.70
2006,03,21,18,57,8.70
2006,03,21,18,58,8.70
2006,03,21,18,59,8.70
2006,03,21,19,00,8.70
2006,03,21,19,01,8.60
2006,03,21,19,02,8.60
2006,03,21,19,03,8.60
2006,03,21,19,04,8.60
2006,03,21,19,05,8.60
2006,03,21,19,06,8.50
2006,03,21,19,07,8.50
2006,03,21,19,08,8.50
2006,03,21,19,09,8.50
2006,03,21,19,10,8.40
2006,03,21,19,11,8.40
2006,03,21,19,12,8.40
2006,03,21,19,13,8.40
2006,03,21,19,14,8.40
2006,03,21,19,15,8.40
2006,03,21,19,16,8.40
2006,03,21,19,17,8.40
2006,03,21,19,18,8.30
2006,03,21,19,19,8.30
2006,03,21,19,20,8.30
2006,03,21,19,21,8.30
2006,03,21,19,22,8.30
2006,03,21,19,23,8.30
2006,03,21,19,24,8.30
2006,03,21,19,25,8.30
2006,03,21,19,26,8.30
2006,03,21,19,27,8.40
2006,03,21,19,28,8.40
2006,03,21,19,29,8.40
2006,03,21,19,30,8.40
2006,03,21,19,31,8.40
2006,03,21,19,32,8.40
2006,03,21,19,33,8.40
2006,03,21,19,34,8.40
2006,03,21,19,35,8.40
2006,03,21,19,36,8.40
2006,03,21,19,37,8.40
2006,03,21,19,38,8.40
2006,03,21,19,39,8.30
2006,03,21,19,40,8.30
2006,03,21,19,41,8.30
2006,03,21,19,42,8.30
2006,03,21,19,43,8.30
2006,03,21,19,44,8.30
2006,03,21,19,45,8.30
2006,03,21,19,46,8.20
2006,03,21,19,47,8.20
2006,03,21,19,48,8.30
2006,03,21,19,49,8.30
2006,03,21,19,50,8.30
2006,03,21,19,51,8.30
2006,03,21,19,52,8.20
2006,03,21,19,53,8.20
2006,03,21,19,54,8.20
2006,03,21,19,55,8.20
2006,03,21,19,56,8.20
2006,03,21,19,57,8.20
2006,03,21,19,58,8.20
2006,03,21,19,59,8.20
2006,03,21,20,00,8.30
2006,03,21,20,01,8.30
2006,03,21,20,02,8.30
2006,03,21,20,03,8.30
2006,03,21,20,04,8.30
2006,03,21,20,05,8.30
2006,03,21,20,06,8.30
2006,03,21,20,07,8.30
2006,03,21,20,08,8.20
2006,03,21,20,09,8.20
2006,03,21,20,10,8.20
2006,03,21,20,11,8.10
2006,03,21,20,12,8.10
2006,03,21,20,13,8.10
2006,03,21,20,14,8.10
2006,03,21,20,15,8.10
2006,03,21,20,16,8.10
2006,03,21,20,17,8.10
2006,03,21,20,18,8.10
2006,03,21,20,19,8.10
2006,03,21,20,20,8.10
2006,03,21,20,21,8.10
2006,03,21,20,22,8.10
2006,03,21,20,23,8.10
2006,03,21,20,24,8.10
2006,03,21,20,25,8.10
2006,03,21,20,26,8.10
2006,03,21,20,27,8.10
2006,03,21,20,28,8.20
2006,03,21,20,29,8.20
2006,03,21,20,30,8.20
2006,03,21,20,31,8.20
2006,03,21,20,32,8.20
2006,03,21,20,33,8.20
2006,03,21,20,34,8.20
2006,03,21,20,35,8.20
2006,03,21,20,36,8.10
2006,03,21,20,37,8.10
2006,03,21,20,38,8.00
2006,03,21,20,39,8.00
2006,03,21,20,40,8.00
2006,03,21,20,41,8.00
2006,03,21,20,42,8.00
2006,03,21,20,43,8.00
2006,03,21,20,44,8.10
2006,03,21,20,45,8.10
2006,03,21,20,46,8.00
2006,03,21,20,47,8.00
2006,03,21,20,48,8.10
2006,03,21,20,49,8.10
2006,03,21,20,50,8.10
2006,03,21,20,51,8.10
2006,03,21,20,52,8.10
2006,03,21,20,53,8.10
2006,03,21,20,54,8.10
2006,03,21,20,55,8.10
2006,03,21,20,56,8.10
2006,03,21,20,57,8.10
2006,03,21,20,58,8.20
2006,03,21,20,59,8.10
2006,03,21,21,00,8.10
2006,03,21,21,01,8.10
2006,03,21,21,02,8.10
2006,03,21,21,03,8.10
2006,03,21,21,04,8.10
2006,03,21,21,05,8.10
2006,03,21,21,06,8.10
2006,03,21,21,07,8.00
2006,03,21,21,08,8.00
2006,03,21,21,09,8.00
2006,03,21,21,10,8.00
2006,03,21,21,11,8.00
2006,03,21,21,12,8.00
2006,03,21,21,13,8.00
2006,03,21,21,14,8.00
2006,03,21,21,15,7.90
2006,03,21,21,16,7.90
2006,03,21,21,17,7.90
2006,03,21,21,18,7.90
2006,03,21,21,19,7.90
2006,03,21,21,20,7.90
2006,03,21,21,21,7.90
2006,03,21,21,22,7.90
2006,03,21,21,23,7.80
2006,03,21,21,24,7.80
2006,03,21,21,25,7.90
2006,03,21,21,26,7.90
2006,03,21,21,27,7.90
2006,03,21,21,28,7.90
2006,03,21,21,29,7.90
2006,03,21,21,30,7.90
2006,03,21,21,31,7.90
2006,03,21,21,32,7.90
2006,03,21,21,33,7.90
2006,03,21,21,34,7.90
2006,03,21,21,35,7.90
2006,03,21,21,36,7.90
2006,03,21,21,37,7.90
2006,03,21,21,38,7.90
2006,03,21,21,39,7.90
2006,03,21,21,40,7.90
2006,03,21,21,41,8.00
2006,03,21,21,42,8.00
2006,03,21,21,43,8.00
2006,03,21,21,44,8.00
2006,03,21,21,45,8.00
2006,03,21,21,46,8.00
2006,03,21,21,47,8.00
2006,03,21,21,48,8.00
2006,03,21,21,49,8.00
2006,03,21,21,50,8.00
2006,03,21,21,51,8.00
2006,03,21,21,52,8.00
2006,03,21,21,53,8.00
2006,03,21,21,54,8.00
2006,03,21,21,55,8.00
2006,03,21,21,56,7.90
2006,03,21,21,57,7.90
2006,03,21,21,58,7.90
2006,03,21,21,59,7.90
2006,03,21,22,00,7.90
2006,03,21,22,01,7.90
2006,03,21,22,02,8.00
2006,03,21,22,03,8.00
2006,03,21,22,04,8.00
2006,03,21,22,05,8.00
2006,03,21,22,06,8.10
2006,03,21,22,07,8.10
2006,03,21,22,08,8.10
2006,03,21,22,09,8.10
2006,03,21,22,10,8.20
2006,03,21,22,11,8.20
2006,03,21,22,12,8.20
2006,03,21,22,13,8.20
2006,03,21,22,14,8.20
2006,03,21,22,15,8.20
2006,03,21,22,16,8.20
2006,03,21,22,17,8.20
2006,03,21,22,18,8.20
2006,03,21,22,19,8.20
2006,03,21,22,20,8.20
2006,03,21,22,21,8.20
2006,03,21,22,22,8.20
2006,03,21,22,23,8.20
2006,03,21,22,24,8.20
2006,03,21,22,25,8.20
2006,03,21,22,26,8.20
2006,03,21,22,27,8.20
2006,03,21,22,28,8.20
2006,03,21,22,29,8.20
2006,03,21,22,30,8.20
2006,03,21,22,31,8.20
2006,03,21,22,32,8.20
2006,03,21,22,33,8.20
2006,03,21,22,34,8.20
2006,03,21,22,35,8.20
2006,03,21,22,36,8.10
2006,03,21,22,37,8.10
2006,03,21,22,38,8.10
2006,03,21,22,39,8.20
2006,03,21,22,40,8.10
2006,03,21,22,41,8.10
2006,03,21,22,42,8.10
2006,03,21,22,43,8.10
2006,03,21,22,44,8.10
2006,03,21,22,45,8.10
2006,03,21,22,46,8.10
2006,03,21,22,47,8.10